This demonstration page uses our WeatherBlox Daily Observations layout. Learn more.

Left ArrowRight Arrow

38.20091, -84.87328

Hourly Observations for February 21, 2022

Temp ( °F °C ) Dew Point ( °F °C ) Humidity (%) Winds ( mph kmh ) Pressure ( in mb ) Visibility ( mi km ) Precip ( " mm )
12:53 am 00:53 Clear 39 3.9 22 -5.6 50 50 SSE 3 6 30.15 1021 10 16 0.00 0.00
1:53 am 01:53 Clear 43 6.1 24 -4.4 47 47 S 7 11 30.16 1021 10 16 0.00 0.00
2:53 am 02:53 Clear 39 3.9 24 -4.4 55 55 S 3 6 30.16 1021 10 16 0.00 0.00
3:53 am 03:53 Clear 38 3.3 24 -4.4 57 57 Calm 30.15 1021 10 16 0.00 0.00
4:53 am 04:53 Clear 39 3.9 24 -4.4 55 55 SE 3 6 30.15 1021 10 16 0.00 0.00
5:53 am 05:53 Clear 39 3.9 24 -4.4 55 55 SE 5 7 30.16 1021 10 16 0.00 0.00
6:53 am 06:53 Clear 38 3.3 25 -3.9 60 60 Calm 30.16 1021 10 16 0.00 0.00
7:53 am 07:53 Sunny 40 4.4 25 -3.9 55 55 SSE 5 7 30.15 1021 10 16 0.00 0.00
8:53 am 08:53 Sunny 46 7.8 28 -2.2 50 50 SSE 7 11 30.16 1021 10 16 0.00 0.00
9:53 am 09:53 Sunny 54 12.2 30 -1.1 40 40 S 8 13 30.15 1021 10 16 0.00 0.00
10:53 am 10:53 Cloudy 59 15 35 1.7 41 41 S 8 13 30.14 1021 10 16 0.00 0.00
11:53 am 11:53 Cloudy 60 15.6 38 3.3 44 44 S 12 19 30.13 1020 10 16 0.00 0.00
12:53 pm 12:53 Cloudy 62 16.7 38 3.3 41 41 S 13 20 30.10 1019 10 16 0.00 0.00
1:53 pm 13:53 Mostly Cloudy 65 18.3 43 6.1 45 45 S 16 26 30.05 1018 10 16 0.00 0.00
2:53 pm 14:53 Mostly Sunny 65 18.3 44 6.7 47 47 S 13 20 30.04 1017 10 16 0.00 0.00
3:53 pm 15:53 Mostly Sunny 67 19.4 42 5.6 41 41 S 15 24 30.02 1017 10 16 0.00 0.00
4:53 pm 16:53 Cloudy 67 19.4 41 5 39 39 S 12 19 30.02 1017 10 16 0.00 0.00
5:53 pm 17:53 Cloudy 66 18.9 42 5.6 42 42 S 10 17 30.03 1017 10 16 0.00 0.00
6:53 pm 18:53 Mostly Clear 63 17.2 40 4.4 43 43 S 14 22 30.04 1017 10 16 0.00 0.00
7:53 pm 19:53 Mostly Cloudy 62 16.7 38 3.3 41 41 S 10 17 30.04 1017 10 16 0.00 0.00
8:53 pm 20:53 Mostly Cloudy 59 15 37 2.8 44 44 S 9 15 30.03 1017 10 16 0.00 0.00
9:53 pm 21:53 Cloudy 59 15 39 3.9 48 48 S 13 20 30.04 1017 10 16 0.00 0.00
10:53 pm 22:53 Partly Cloudy 57 13.9 43 6.1 60 60 S 10 17 30.02 1017 10 16 0.00 0.00
11:53 pm 23:53 Mostly Cloudy 56 13.3 45 7.2 67 67 S 9 15 30.02 1017 10 16 0.00 0.00

Powered by AerisWeather